Regional Weather Roundup
Issued by NWS Charleston, SC

Current Version | Previous Version | Graphics & Text | Print | Product List | Glossary On
Versions: 1 2 3 4 5 6 7 8 9 10 11 12 13 14 15 16 17 18 19 20 21 22 23 24 25 26 27 28 29 30 31 32 33 34 35 36 37 38 39 40 41 42 43 44 45 46 47 48 49 50
000 ASUS42 KCHS 181627 RWRCHS REGIONAL WEATHER ROUNDUP NATIONAL WEATHER SERVICE CHARLESTON SC 1200 PM EDT WED OCT 18 2017 NOTE: "FAIR" INDICATES FEW OR NO CLOUDS BELOW 12,000 FEET WITH NO SIGNIFICANT WEATHER AND/OR OBSTRUCTIONS TO VISIBILITY. NOT ALL STATIONS ARE QUALITY CONTROLLED. USE DATA WITH CAUTION... ESPECIALLY DEWPOINT OBSERVATIONS. SCZ027-030-031-034>040-042>050-181700- ...SOUTHEAST SOUTH CAROLINA... CITY SKY/WX TMP DP RH WIND PRES REMARKS N CHARLESTON SUNNY 69 55 60 NE12 30.31F WATERFRONT PRK N/A 66 58 75 NE15 30.15F JOHNS ISLAND FAIR 70 59 68 NE9G16 30.30F PINOPOLIS N/A 61 54 77 NE7 30.25R MONCKS CORNER FAIR 64 50 59 N7 30.32F SUMMERVILLE FAIR 66 52 59 NE7 30.33F BEAUFORT MCAS SUNNY 70 56 61 MISG 30.30F BEAUFORT ARPT FAIR 68 55 64 NE10 30.29F HILTON HEAD IS SUNNY 68 55 64 NE14 N/A WALTERBORO SUNNY 66 52 59 N5 30.32F ALLENDALE NOT AVBL ...SOUTHERN MIDLANDS AND PEE DEE... CITY SKY/WX TMP DP RH WIND PRES REMARKS GEORGETOWN FAIR 68 54 60 N9 30.32F KINGSTREE FAIR 64 45 48 N7 30.35S ORANGEBURG SUNNY 64 40 41 E6 30.35F BARNWELL N/A 66 41 39 N7 30.34F AIKEN FAIR 63 37 39 NE9 30.38F MANNING HAZE 64 50 59 MISG 30.35S VSB 1/4 COLUMBIA SUNNY 65 40 39 NE9 30.36F SUMTER SUNNY 64 39 39 NE9G18 30.34F FLORENCE SUNNY 62 44 51 NE9 30.37S MYRTLE BEACH SUNNY 67 53 61 N9 30.34F N MYRTLE BEACH SUNNY 67 53 61 NE10 30.33S $$ GAZ063-065-086>088-099>101-113>116-118-119-134>141-150-181700- ...SOUTHEAST GEORGIA... CITY SKY/WX TMP DP RH WIND PRES REMARKS SAVANNAH ARPT MOSUNNY 70 54 56 NE9 30.30S HUNTER AAF SUNNY 70 55 59 NE8G18 30.26F FORT STEWART SUNNY 69 53 55 N10 30.27S STATESBORO SUNNY 68 44 40 N8 30.31F SYLVANIA SUNNY 67 48 50 E8 30.33F CLAXTON FAIR 70 53 54 NE10 30.31S ...CSRA...CENTRAL AND FAR SOUTHEAST GEORGIA... CITY SKY/WX TMP DP RH WIND PRES REMARKS THOMSON SUNNY 65 39 38 SE10 30.41S AUGUSTA-BUSH SUNNY 68 38 33 NE9 30.35F AUGUSTA-DANIEL SUNNY 66 37 34 E12 30.36F SWAINSBORO FAIR 66 43 42 N9 30.32F VIDALIA SUNNY 70 52 52 NE8 30.30F EASTMAN FAIR 70 30 22 E8 30.34F HAZLEHURST FAIR 70 41 34 NE6 30.28F ALMA SUNNY 71 53 52 MISG 30.28F WAYCROSS SUNNY 73 53 50 NE7 30.25F JESUP NOT AVBL BAXLEY FAIR 68 52 56 NE12 30.27F BRUNSWICK MOSUNNY 70 59 68 NE14G23 30.26F SAINT SIMONS PTSUNNY 73 63 70 NE14G25 30.25R $$ SCZ027-028-034-036>038-045-046-048>050-GAZ119-141-181700- ...LAKE AND SUPPLEMENTAL COASTAL OBSERVATIONS... STATION/POSITION TIME TEMP WIND PRES WAVE SWELL AIR SEA DIR/SP/G HT/PER HT/PER/DIR (UTC) (F) (DEG/KT/KT) (MB) (FT/S) (FT/S/D) WINYAH BAY 1530 66 20/ 7 1027.0S LAKE MURRAY 1620 63 40/ 3/ 6 1027.4 ACE BASIN NERRS 1545 67 10/ 5 1026.0S FORT PULASKI 1600 66 74 30/ 14/ 17 1025.4 SAPELO ISLAND 1600 69 30/ 15 1025.0 $$ ANZ835-935-AMZ111-154-330-350-352-354-370-450-454-472-181700- ...C-MAN AND BUOY OBSERVATIONS... STATION/POSITION TIME TEMP WIND PRES WAVE SWELL AIR SEA DIR/SP/G HT/PER HT/PER/DIR (UTC) (F) (DEG/KT/KT) (MB) (FT/S) (FT/S/D) BUOY 41004 1610 71 80 20/ 21/ 27 1024.2 BUOY 41008 1550 71 78 40/ 19/ 25 1023.4R 7/11 3/100/11 FOLLY BEACH CMAN 1600 66 30/ 17/ 20 1026.4F CAPERS NEARSHORE 1608 64 74 40/ 17/ 23 1025.8F FRIPP NEARSHORE 1608 68 50/ 14/ 19 N/A STATION/POSITION TIME TEMP WIND PRES WAVE SWELL AIR SEA DIR/SP/G HT/PER HT/PER/DIR (UTC) (F) (DEG/KT/KT) (MB) (FT/S) (FT/S/D) 5E ST. MARYS GA 1600 78 N/A 7/ 7 2/100/11 FRYING PAN BUOY 1610 71 76 30/ 19/ 25 1025.3 BUOY 41025 1550 69 82 20/ 19/ 23 1026.0R 6/ 9 3/110/ 9 CAPE LOOKOUT NC 1600 67 30/ 18/ 21 1026.7R BUOY 41002 1550 75 80 50/ 23/ 29 1020.5F 9/ 9 5/ 80/ 9 BUOY 41010 NOT AVBL ST AUGUSTINE FL 1600 78 79 50/ 20/ 22 1022.2S $$

USA.gov is the U.S. government's official web portal to all federal, state and local government web resources and services.